This is the latest recevied weather packets stored in our database for station/object N4BBA. If no packets are shown the sender has not sent any weather packets the latest 10 day(s).
| Time | Temp. | Humidity | Pressure | Rain* | Wind** | Luminosity | Snow |
|---|---|---|---|---|---|---|---|
| 1777754057 | 12.22° C | 95% | 1011 hPa | 1.78 mm | - | 197 W/m² | - |
| 1777753752 | 12.22° C | 96% | 1011.1 hPa | 1.78 mm | - | 208 W/m² | - |
| 1777753450 | 12.22° C | 95% | 1011 hPa | 0 mm | - | 165 W/m² | - |
| 1777753148 | 11.67° C | 95% | 1010.8 hPa | 1.78 mm | - | 196 W/m² | - |
| 1777752843 | 12.22° C | 96% | 1011.2 hPa | 1.78 mm | - | 118 W/m² | - |
| 1777752540 | 12.22° C | 96% | 1011.2 hPa | 0 mm | - | 133 W/m² | - |
| 1777752235 | 11.67° C | 95% | 1011.1 hPa | 0 mm | - | 203 W/m² | - |
| 1777751934 | 11.67° C | 96% | 1011.1 hPa | 0 mm | - | 178 W/m² | - |
| 1777751630 | 11.67° C | 96% | 1011.2 hPa | 1.27 mm | - | 168 W/m² | - |
| 1777751327 | 11.67° C | 96% | 1011.3 hPa | 0 mm | - | 127 W/m² | - |
| 1777751024 | 12.22° C | 96% | 1011.1 hPa | 0 mm | - | 203 W/m² | - |
| 1777750720 | 12.22° C | 96% | 1011.3 hPa | 0 mm | - | 214 W/m² | - |
| 1777750417 | 12.22° C | 96% | 1011.3 hPa | 1.78 mm | - | 263 W/m² | - |
| 1777750113 | 12.22° C | 96% | 1011.3 hPa | 1.78 mm | - | 251 W/m² | - |
| 1777749810 | 12.22° C | 96% | 1011.6 hPa | 0 mm | - | 249 W/m² | - |
| 1777749507 | 11.67° C | 96% | 1011.6 hPa | 0 mm | - | 225 W/m² | - |
| 1777749205 | 11.67° C | 96% | 1011.6 hPa | 0 mm | - | 233 W/m² | - |
| 1777748902 | 11.67° C | 96% | 1011.8 hPa | 1.27 mm | - | 203 W/m² | - |
| 1777748599 | 11.67° C | 96% | 1011.7 hPa | 1.27 mm | - | 212 W/m² | - |
| 1777748295 | 11.67° C | 96% | 1011.7 hPa | 0 mm | - | 251 W/m² | - |
| 1777747991 | 11.67° C | 96% | 1011.8 hPa | 0 mm | - | 202 W/m² | - |
| 1777747688 | 11.67° C | 96% | 1011.7 hPa | 1.78 mm | - | 203 W/m² | - |
| 1777747383 | 11.67° C | 96% | 1011.5 hPa | 1.78 mm | - | 135 W/m² | - |
| 1777747080 | 11.67° C | 96% | 1011.4 hPa | 0 mm | - | 207 W/m² | - |
| 1777746776 | 11.67° C | 96% | 1011.6 hPa | 1.27 mm | - | 78 W/m² | - |
* Rain latest hour (hover to see other rain measurements)
** Current wind speed in m/s (hover to see current wind gust speed)